User: anonymous   Login
Location: Gull Harbor
(47.1000°N, 122.9000°W)
Time: 23:39:28
(UTC-07:00)
Language:

Envisat - Orbit

View from above orbital plane
View from above orbital plane
View from above satellite
View from above satellite

Ground track
Ground track

The orbit data is extracted from the following two-line orbital elements,

1 27386U 02009A   19142.87830296 -.00000015  00000-0  85636-5 0  9997
2 27386  98.1509 165.2735 0001313  89.6111 328.3841 14.37948907902342
Epoch (UTC): 22 May 2019 21:04:45
Eccentricity: 0.0001313
inclination: 98.1509°
perigee height: 764 km
apogee height: 766 km
right ascension of ascending node: 165.2735°
argument of perigee: 89.6111°
revolutions per day: 14.37948907
mean anomaly at epoch: 328.3841°
orbit number at epoch: 90234

The dashed part of the orbit path shows where the satellite is in the earth's shadow,  

DLR